H1 CPF 2 NER 2024 1 28 9 028 01 glonass132 H2 1401201 9132 39620 2024 1 28 0 0 0 2024 1 31 23 45 0 900 1 1 0 0 0 1 H9 10 0 60337 0.00000 0 -4986761.429 -14961324.892 20049826.378 10 0 60337 900.00000 0 -2931389.933 -13425648.116 21496594.795 10 0 60337 1800.00000 0 -635242.717 -11972821.335 22526158.628 10 0 60337 2700.00000 0 1852718.208 -10653392.215 23118786.545 10 0 60337 3600.00000 0 4474634.727 -9508832.667 23263224.358 10 0 60337 4500.00000 0 7165927.338 -8569891.073 22956893.163 10 0 60337 5400.00000 0 9857752.121 -7855412.786 22205921.895 10 0 60337 6300.00000 0 12479638.885 -7371675.821 21025015.050 10 0 60337 7200.00000 0 14962202.375 -7112267.301 19437159.024 10 0 60337 8100.00000 0 17239815.759 -7058503.917 17473173.220 10 0 60337 9000.00000 0 19253137.407 -7180377.409 15171114.561 10 0 60337 9900.00000 0 20951387.956 -7437984.612 12575546.460 10 0 60337 10800.00000 0 22294284.870 -7783381.831 9736685.603 10 0 60337 11700.00000 0 23253555.584 -8162785.899 6709441.964 10 0 60337 12600.00000 0 23813967.345 -8519030.017 3552369.486 10 0 60337 13500.00000 0 23973831.578 -8794171.812 326546.522 10 0 60337 14400.00000 0 23744961.949 -8932144.636 -2905593.467 10 0 60337 15300.00000 0 23152087.730 -8881341.013 -6081459.279 10 0 60337 16200.00000 0 22231746.455 -8597019.644 -9139505.068 10 0 60337 17100.00000 0 21030701.383 -8043434.384 -12020416.553 10 0 60337 18000.00000 0 19603949.065 -7195594.720 -14668257.721 10 0 60337 18900.00000 0 18012399.436 -6040582.335 -17031556.075 10 0 60337 19800.00000 0 16320324.638 -4578366.470 -19064305.421 10 0 60337 20700.00000 0 14592682.681 -2822081.463 -20726866.553 10 0 60337 21600.00000 0 12892427.507 -797752.106 -21986747.969 10 0 60337 22500.00000 0 11277917.893 1456524.596 -22819250.917 10 0 60337 23400.00000 0 9800533.873 3891909.848 -23207965.388 10 0 60337 24300.00000 0 8502600.927 6450612.739 -23145106.451 10 0 60337 25200.00000 0 7415709.622 9068066.644 -22631683.204 10 0 60337 26100.00000 0 6559502.003 11675403.176 -21677495.778 10 0 60337 27000.00000 0 5940976.545 14202121.472 -20300959.125 10 0 60337 27900.00000 0 5554341.626 16578841.786 -18528755.773 10 0 60337 28800.00000 0 5381424.225 18740028.062 -16395323.238 10 0 60337 29700.00000 0 5392616.780 20626564.971 -13942185.369 10 0 60337 30600.00000 0 5548321.949 22188080.498 -11217140.248 10 0 60337 31500.00000 0 5800833.443 23384915.586 -8273320.705 10 0 60337 32400.00000 0 6096572.023 24189657.196 -5168146.381 10 0 60337 33300.00000 0 6378580.290 24588169.734 -1962188.908 10 0 60337 34200.00000 0 6589168.486 24580081.331 1282026.094 10 0 60337 35100.00000 0 6672597.030 24178704.992 4501255.076 10 0 60337 36000.00000 0 6577679.995 23410399.047 7632784.750 10 0 60337 36900.00000 0 6260197.406 22313395.480 10615666.292 10 0 60337 37800.00000 0 5685012.830 20936147.497 13391910.113 10 0 60337 38700.00000 0 4827805.849 19335268.026 15907616.973 10 0 60337 39600.00000 0 3676345.901 17573147.918 18114023.002 10 0 60337 40500.00000 0 2231253.968 15715355.608 19968438.522 10 0 60337 41400.00000 0 506220.542 13827928.431 21435063.269 10 0 60337 42300.00000 0 -1472328.523 11974669.546 22485663.430 10 0 60337 43200.00000 0 -3666103.602 10214563.210 23100099.092 10 0 60337 44100.00000 0 -6026323.347 8599415.292 23266693.704 10 0 60337 45000.00000 0 -8495529.715 7171815.836 22982440.283 10 0 60337 45900.00000 0 -11009770.595 5963506.428 22253042.066 10 0 60337 46800.00000 0 -13501059.922 4994217.984 21092788.196 10 0 60337 47700.00000 0 -15900014.122 4271024.973 19524267.812 10 0 60337 48600.00000 0 -18138556.840 3788240.674 17577928.557 10 0 60337 49500.00000 0 -20152581.329 3527855.938 15291488.015 10 0 60337 50400.00000 0 -21884461.627 3460501.690 12709209.038 10 0 60337 51300.00000 0 -23285309.850 3546893.991 9881052.205 10 0 60337 52200.00000 0 -24316887.146 3739700.790 6861720.699 10 0 60337 53100.00000 0 -24953089.861 3985752.129 3709614.984 10 0 60337 54000.00000 0 -25180949.639 4228501.404 485716.234 10 0 60337 54900.00000 0 -25001105.999 4410634.731 -2747580.999 10 0 60337 55800.00000 0 -24427731.391 4476719.175 -5927665.299 10 0 60337 56700.00000 0 -23487911.289 4375778.639 -8992911.739 10 0 60337 57600.00000 0 -22220504.283 4063688.945 -11883869.448 10 0 60337 58500.00000 0 -20674528.719 3505290.718 -14544410.775 10 0 60337 59400.00000 0 -18907142.167 2676130.142 -16922820.043 10 0 60337 60300.00000 0 -16981296.977 1563752.754 -18972800.821 10 0 60337 61200.00000 0 -14963168.971 168493.838 -20654382.009 10 0 60337 62100.00000 0 -12919465.893 -1496270.278 -21934704.789 10 0 60337 63000.00000 0 -10914727.613 -3404423.334 -22788674.625 10 0 60337 63900.00000 0 -9008730.725 -5517952.925 -23199464.822 10 0 60337 64800.00000 0 -7254106.147 -7788304.391 -23158860.892 10 0 60337 65700.00000 0 -5694269.748 -10158190.720 -22667437.888 10 0 60337 66600.00000 0 -4361753.213 -12563784.735 -21734565.919 10 0 60337 67500.00000 0 -3277005.731 -14937203.401 -20378242.490 10 0 60337 68400.00000 0 -2447717.425 -17209181.089 -18624753.601 10 0 60337 69300.00000 0 -1868693.408 -19311820.056 -16508169.181 10 0 60337 70200.00000 0 -1522283.910 -21181302.444 -14069681.900 10 0 60337 71100.00000 0 -1379352.101 -22760449.214 -11356801.856 10 0 60337 72000.00000 0 -1400738.017 -24001017.373 -8422422.997 10 0 60337 72900.00000 0 -1539155.471 -24865637.809 -5323780.079 10 0 60337 73800.00000 0 -1741439.974 -25329311.181 -2121317.601 10 0 60337 74700.00000 0 -1951050.410 -25380398.278 1122505.668 10 0 60337 75600.00000 0 -2110716.183 -25021063.074 4344451.533 10 0 60337 76500.00000 0 -2165115.407 -24267150.328 7481750.626 10 0 60337 77400.00000 0 -2063468.561 -23147504.037 10473337.991 10 0 60337 78300.00000 0 -1761936.091 -21702757.030 13261050.451 10 0 60337 79200.00000 0 -1225717.338 -19983644.543 15790761.479 10 0 60337 80100.00000 0 -430761.450 -18048914.591 18013431.018 10 0 60337 81000.00000 0 634981.937 -15962924.652 19886050.006 10 0 60337 81900.00000 0 1970824.575 -13793026.685 21372462.085 10 0 60337 82800.00000 0 3563144.371 -11606850.658 22444047.748 10 0 60337 83700.00000 0 5385740.413 -9469600.091 23080259.369 10 0 60337 84600.00000 0 7400722.701 -7441471.683 23268998.569 10 0 60337 85500.00000 0 9559898.888 -5575305.132 23006830.500 10 0 60338 0.00000 0 11806599.869 -3914559.112 22299032.676 10 0 60338 900.00000 0 14077869.718 -2491694.385 21159478.373 10 0 60338 1800.00000 0 16306926.543 -1327030.944 19610358.854 10 0 60338 2700.00000 0 18425797.069 -428121.283 17681749.068 10 0 60338 3600.00000 0 20368013.868 210334.145 15411026.051 10 0 60338 4500.00000 0 22071265.757 606028.498 12842150.601 10 0 60338 5400.00000 0 23479892.520 788067.566 10024825.380 10 0 60338 6300.00000 0 24547121.440 795508.071 7013544.658 10 0 60338 7200.00000 0 25236953.558 675476.815 3866552.973 10 0 60338 8100.00000 0 25525621.678 480949.514 644731.607 10 0 60338 9000.00000 0 25402559.526 268282.234 -2589566.736 10 0 60338 9900.00000 0 24870841.329 94598.805 -5773713.483 10 0 60338 10800.00000 0 23947072.779 15143.713 -8846007.694 10 0 60338 11700.00000 0 22660736.903 80711.794 -11746864.892 10 0 60338 12600.00000 0 21053020.873 335263.112 -14419968.596 10 0 60338 13500.00000 0 19175171.315 813824.139 -16813362.515 10 0 60338 14400.00000 0 17086445.383 1540764.715 -18880462.284 10 0 60338 15300.00000 0 14851741.768 2528524.964 -20580966.946 10 0 60338 16200.00000 0 12539009.406 3776847.808 -21881652.143 10 0 60338 17100.00000 0 10216541.108 5272551.837 -22757029.056 10 0 60338 18000.00000 0 7950264.536 6989856.769 -23189855.526 10 0 60338 18900.00000 0 5801143.352 8891250.590 -23171488.420 10 0 60338 19800.00000 0 3822797.126 10928864.677 -22702069.282 10 0 60338 20700.00000 0 2059439.831 13046301.463 -21790538.357 10 0 60338 21600.00000 0 544223.617 15180839.880 -20454475.410 10 0 60338 22500.00000 0 -701942.253 17265927.270 -18719769.173 10 0 60338 23400.00000 0 -1671047.288 19233853.716 -16620120.776 10 0 60338 24300.00000 0 -2368082.776 21018496.420 -14196390.049 10 0 60338 25200.00000 0 -2810587.722 22558018.129 -11495797.009 10 0 60338 26100.00000 0 -3027657.455 23797405.007 -8570994.225 10 0 60338 27000.00000 0 -3058457.926 24690735.868 -5479028.732 10 0 60338 27900.00000 0 -2950310.063 25203085.898 -2280214.789 10 0 60338 28800.00000 0 -2756427.311 25311983.613 963058.999 10 0 60338 29700.00000 0 -2533404.434 25008359.073 4187563.180 10 0 60338 30600.00000 0 -2338566.381 24296943.321 7330475.708 10 0 60338 31500.00000 0 -2227291.773 23196102.817 10330618.798 10 0 60338 32400.00000 0 -2250426.342 21737116.965 13129658.817 10 0 60338 33300.00000 0 -2451897.238 19962930.632 15673244.853 10 0 60338 34200.00000 0 -2866629.963 17926435.844 17912063.281 10 0 60338 35100.00000 0 -3518856.171 15688356.435 19802787.982 10 0 60338 36000.00000 0 -4420883.429 13314825.661 21308908.502 10 0 60338 36900.00000 0 -5572378.025 10874759.045 22401421.293 10 0 60338 37800.00000 0 -6960190.068 8437132.380 23059372.296 10 0 60338 38700.00000 0 -8558727.272 6068277.929 23270242.186 10 0 60338 39600.00000 0 -10330860.983 3829310.241 23030168.683 10 0 60338 40500.00000 0 -12229326.107 1773786.861 22344003.375 10 0 60338 41400.00000 0 -14198556.459 -54301.122 21225203.376 10 0 60338 42300.00000 0 -16176879.376 -1622127.687 19695560.914 10 0 60338 43200.00000 0 -18098978.955 -2909155.864 17784776.647 10 0 60338 44100.00000 0 -19898526.503 -3907742.805 15529884.978 10 0 60338 45000.00000 0 -21510869.967 -4623202.938 12974542.128 10 0 60338 45900.00000 0 -22875671.729 -5073328.315 10168189.959 10 0 60338 46800.00000 0 -23939386.168 -5287387.406 7165110.679 10 0 60338 47700.00000 0 -24657474.702 -5304644.921 4023389.586 10 0 60338 48600.00000 0 -24996266.591 -5172464.915 803804.664 10 0 60338 49500.00000 0 -24934388.056 -4944076.616 -2431336.632 10 0 60338 50400.00000 0 -24463699.755 -4676096.468 -5619391.924 10 0 60338 51300.00000 0 -23589702.755 -4425910.189 -8698587.510 10 0 60338 52200.00000 0 -22331394.878 -4249024.653 -11609208.412 10 0 60338 53100.00000 0 -20720582.001 -4196501.033 -14294752.236 10 0 60338 54000.00000 0 -18800671.389 -4312577.541 -16703024.736 10 0 60338 54900.00000 0 -16624995.707 -4632582.602 -18787155.948 10 0 60338 55800.00000 0 -14254735.965 -5181227.499 -20506516.980 10 0 60338 56700.00000 0 -11756528.489 -5971351.996 -21827519.351 10 0 60338 57600.00000 0 -9199854.398 -7003177.789 -22724280.851 10 0 60338 58500.00000 0 -6654319.481 -8264103.539 -23179144.163 10 0 60338 59400.00000 0 -4186937.242 -9729052.656 -23183037.269 10 0 60338 60300.00000 0 -1859528.165 -11361361.762 -22735667.452 10 0 60338 61200.00000 0 273656.193 -13114174.843 -21845543.872 10 0 60338 62100.00000 0 2167984.731 -14932286.490 -20529826.948 10 0 60338 63000.00000 0 3790087.758 -16754358.241 -18814006.205 10 0 60338 63900.00000 0 5119018.160 -18515415.644 -16731411.766 10 0 60338 64800.00000 0 6146883.823 -20149521.175 -14322568.182 10 0 60338 65700.00000 0 6878924.748 -21592510.050 -11634402.781 10 0 60338 66600.00000 0 7333032.008 -22784672.680 -8719324.020 10 0 60338 67500.00000 0 7538729.787 -23673269.390 -5634188.398 10 0 60338 68400.00000 0 7535664.888 -24214769.916 -2439177.090 10 0 60338 69300.00000 0 7371669.472 -24376721.795 803394.276 10 0 60338 70200.00000 0 7100481.253 -24139167.835 4030307.754 10 0 60338 71100.00000 0 6779220.104 -23495552.285 7178691.266 10 0 60338 72000.00000 0 6465730.330 -22453077.525 10187256.691 10 0 60338 72900.00000 0 6215903.325 -21032496.863 12997502.251 10 0 60338 73800.00000 0 6081095.625 -19267353.224 15554854.728 10 0 60338 74700.00000 0 6105752.706 -17202697.158 17809728.745 10 0 60338 75600.00000 0 6325339.429 -14893339.483 19718482.634 10 0 60338 76500.00000 0 6764664.284 -12401713.101 21244253.022 10 0 60338 77400.00000 0 7436667.431 -9795434.466 22357653.151 10 0 60338 78300.00000 0 8341722.473 -7144666.929 23037323.010 10 0 60338 79200.00000 0 9467480.151 -4519395.643 23270322.465 10 0 60338 80100.00000 0 10789259.372 -1986726.593 23052361.630 10 0 60338 81000.00000 0 12270968.313 391679.545 22387865.801 10 0 60338 81900.00000 0 13866516.617 2561934.186 21289875.097 10 0 60338 82800.00000 0 15521659.569 4479914.065 19779781.836 10 0 60338 83700.00000 0 17176197.710 6112840.757 17886911.265 10 0 60338 84600.00000 0 18766440.893 7440383.439 15647953.838 10 0 60338 85500.00000 0 20227835.088 8455241.387 13106259.678 10 0 60339 0.00000 0 21497643.447 9163183.881 10311008.370 10 0 60339 900.00000 0 22517571.635 9582547.715 7316267.590 10 0 60339 1800.00000 0 23236227.176 9743213.424 4179961.438 10 0 60339 2700.00000 0 23611313.079 9685104.811 962762.197 10 0 60339 3600.00000 0 23611462.664 9456273.738 -2273070.502 10 0 60339 4500.00000 0 23217639.373 9110650.728 -5464883.149 10 0 60339 5400.00000 0 22424042.291 8705555.392 -8550831.967 10 0 60339 6300.00000 0 21238478.325 8299070.924 -11471074.102 10 0 60339 7200.00000 0 19682183.964 7947392.834 -14168923.725 10 0 60339 8100.00000 0 17789102.223 7702263.451 -16591950.934 10 0 60339 9000.00000 0 15604642.942 7608600.511 -18693002.248 10 0 60339 9900.00000 0 13183976.160 7702420.389 -20431122.711 10 0 60339 10800.00000 0 10589927.796 8009144.542 -21772361.413 10 0 60339 11700.00000 0 7890563.633 8542362.059 -22690444.240 10 0 60339 12600.00000 0 5156560.886 9303102.286 -23167300.021 10 0 60339 13500.00000 0 2458475.845 10279650.329 -23193428.907 10 0 60339 14400.00000 0 -135979.200 11447915.488 -22768104.682 10 0 60339 15300.00000 0 -2564536.418 12772339.305 -21899405.825 10 0 60339 16200.00000 0 -4772741.698 14207307.011 -20604073.399 10 0 60339 17100.00000 0 -6715993.451 15699004.514 -18907197.253 10 0 60339 18000.00000 0 -8361165.177 17187643.717 -16841735.556 10 0 60339 18900.00000 0 -9687743.483 18609962.818 -14447876.195 10 0 60339 19800.00000 0 -10688433.608 19901895.905 -11772251.988 10 0 60339 20700.00000 0 -11369207.149 21001298.381 -8867025.095 10 0 60339 21600.00000 0 -11748790.635 21850611.895 -5788858.978 10 0 60339 22500.00000 0 -11857617.666 22399354.711 -2597798.978 10 0 60339 23400.00000 0 -11736290.525 22606330.711 643915.197 10 0 60339 24300.00000 0 -11433618.405 22441462.356 3873080.170 10 0 60339 25200.00000 0 -11004317.627 21887169.180 7026776.961 10 0 60339 26100.00000 0 -10506473.629 20939233.156 10043610.245 10 0 60339 27000.00000 0 -9998874.464 19607114.525 12864913.170 10 0 60339 27900.00000 0 -9538330.581 17913705.397 15435893.170 10 0 60339 28800.00000 0 -9177095.621 15894532.534 17706695.908 10 0 60339 29700.00000 0 -8960497.944 13596444.021 19633366.730 10 0 60339 30600.00000 0 -8924882.887 11075836.117 21178691.660 10 0 60339 31500.00000 0 -9095951.931 8396495.491 22312902.734 10 0 60339 32400.00000 0 -9487567.594 5627147.540 23014235.650 10 0 60339 33300.00000 0 -10101072.933 2838812.950 23269330.734 10 0 60339 34200.00000 0 -10925152.766 102081.943 23073471.342 10 0 60339 35100.00000 0 -11936241.107 -2515581.808 22430656.844 10 0 60339 36000.00000 0 -13099456.744 -4952397.442 21353510.243 10 0 60339 36900.00000 0 -14370027.229 -7154579.524 19863023.302 10 0 60339 37800.00000 0 -15695141.641 -9078313.508 17988144.693 10 0 60339 38700.00000 0 -17016155.058 -10691314.624 15765219.265 10 0 60339 39600.00000 0 -18271053.357 -11973907.810 13237288.921 10 0 60339 40500.00000 0 -19397076.338 -12919585.903 10453267.936 10 0 60339 41400.00000 0 -20333390.652 -13535024.559 7467007.617 10 0 60339 42300.00000 0 -21023701.748 -13839554.483 4336267.296 10 0 60339 43200.00000 0 -21418696.388 -13864113.743 1121610.289 10 0 60339 44100.00000 0 -21478213.940 -13649724.274 -2114754.971 10 0 60339 45000.00000 0 -21173055.508 -13245556.288 -5310167.262 10 0 60339 45900.00000 0 -20486354.626 -12706661.424 -8402716.159 10 0 60339 46800.00000 0 -19414451.045 -12091469.377 -11332434.301 10 0 60339 47700.00000 0 -17967229.537 -11459152.714 -14042455.678 10 0 60339 48600.00000 0 -16167907.627 -10866970.431 -16480117.797 10 0 60339 49500.00000 0 -14052278.903 -10367701.901 -18597986.436 10 0 60339 50400.00000 0 -11667441.245 -10007279.509 -20354782.975 10 0 60339 51300.00000 0 -9070060.722 -9822720.262 -21716195.988 10 0 60339 52200.00000 0 -6324241.405 -9840444.472 -22655560.827 10 0 60339 53100.00000 0 -3499088.031 -10075053.739 -23154393.237 10 0 60339 54000.00000 0 -666061.584 -10528621.354 -23202765.721 10 0 60339 54900.00000 0 2103763.121 -11190526.934 -22799518.191 10 0 60339 55800.00000 0 4742424.123 -12037844.162 -21952297.569 10 0 60339 56700.00000 0 7187669.749 -13036267.137 -20677424.247 10 0 60339 57600.00000 0 9385318.226 -14141537.810 -18999586.700 10 0 60339 58500.00000 0 11291280.399 -15301315.385 -16951369.123 10 0 60339 59400.00000 0 12873160.439 -16457409.340 -14572620.388 10 0 60339 60300.00000 0 14111367.063 -17548281.710 -11909676.177 10 0 60339 61200.00000 0 14999688.444 -18511712.201 -9014449.463 10 0 60339 62100.00000 0 15545306.930 -19287512.306 -5943407.568 10 0 60339 63000.00000 0 15768253.760 -19820172.103 -2756456.731 10 0 60339 63900.00000 0 15700328.104 -20061326.061 484242.603 10 0 60339 64800.00000 0 15383527.927 -19971931.934 3715504.958 10 0 60339 65700.00000 0 14868061.210 -19524069.258 6874367.664 10 0 60339 66600.00000 0 14210024.050 -18702280.515 9899331.203 10 0 60339 67500.00000 0 13468846.244 -17504397.962 12731566.366 10 0 60339 68400.00000 0 12704614.468 -15941821.425 15316063.605 10 0 60339 69300.00000 0 11975387.874 -14039235.969 17602701.589 10 0 60339 70200.00000 0 11334620.441 -11833782.270 19547214.238 10 0 60339 71100.00000 0 10828799.161 -9373715.529 21112038.091 10 0 60339 72000.00000 0 10495397.160 -6716610.067 22267024.680 10 0 60339 72900.00000 0 10361226.876 -3927185.249 22990005.701 10 0 60339 73800.00000 0 10441261.038 -1074843.579 23267201.855 10 0 60339 74700.00000 0 10737969.247 1768976.883 23093469.299 10 0 60339 75600.00000 0 11241196.233 4533526.741 22472380.729 10 0 60339 76500.00000 0 11928585.378 7151434.556 21416141.024 10 0 60339 77400.00000 0 12766528.613 9561251.567 19945340.146 10 0 60339 78300.00000 0 13711602.240 11709748.617 18088548.758 10 0 60339 79200.00000 0 14712428.436 13553872.406 15881764.486 10 0 60339 80100.00000 0 15711884.848 15062282.200 13367719.232 10 0 60339 81000.00000 0 16649570.470 16216405.314 10595060.265 10 0 60339 81900.00000 0 17464425.483 17010969.234 7617419.899 10 0 60339 82800.00000 0 18097396.294 17453989.552 4492390.654 10 0 60339 83700.00000 0 18494034.946 17566215.077 1280424.459 10 0 60339 84600.00000 0 18606924.531 17380053.707 -1956323.969 10 0 60339 85500.00000 0 18397829.062 16938023.989 -5155188.251 10 0 60340 0.00000 0 17839477.417 16290796.958 -8254193.555 10 0 60340 900.00000 0 16916905.303 15494909.491 -11193250.986 10 0 60340 1800.00000 0 15628298.430 14610245.463 -13915316.321 10 0 60340 2700.00000 0 13985298.729 13697388.806 -16367496.524 10 0 60340 3600.00000 0 12012759.195 12814960.164 -18502078.480 10 0 60340 4500.00000 0 9747954.890 12017048.704 -20277461.555 10 0 60340 5400.00000 0 7239280.549 11350847.333 -21658975.275 10 0 60340 6300.00000 0 4544486.599 10854591.358 -22619565.754 10 0 60340 7200.00000 0 1728524.931 10555888.242 -23140336.780 10 0 60340 8100.00000 0 -1138907.738 10470509.965 -23210934.113 10 0 60340 9000.00000 0 -3986028.033 10601700.297 -22829764.430 10 0 60340 9900.00000 0 -6741715.798 10940027.710 -22004043.393 10 0 60340 10800.00000 0 -9338241.504 11463791.690 -20749670.616 10 0 60340 11700.00000 0 -11713857.472 12139966.669 -19090932.667 10 0 60340 12600.00000 0 -13815144.256 12925644.769 -17060038.772 10 0 60340 13500.00000 0 -15599013.572 13769916.999 -14696497.395 10 0 60340 14400.00000 0 -17034283.281 14616113.412 -12046345.330 10 0 60340 15300.00000 0 -18102757.893 15404306.921 -9161244.312 10 0 60340 16200.00000 0 -18799769.104 16073973.696 -6097463.244 10 0 60340 17100.00000 0 -19134153.986 16566696.037 -2914766.805 10 0 60340 18000.00000 0 -19127672.650 16828791.436 324766.410 10 0 60340 18900.00000 0 -18813891.406 16813754.740 3557971.515 10 0 60340 19800.00000 0 -18236580.561 16484408.345 6721844.931 10 0 60340 20700.00000 0 -17447696.766 15814668.198 9754785.768 10 0 60340 21600.00000 0 -16505037.582 14790850.132 12597805.303 10 0 60340 22500.00000 0 -15469669.574 13412461.137 15195679.809 10 0 60340 23400.00000 0 -14403240.430 11692442.450 17498023.674 10 0 60340 24300.00000 0 -13365289.807 9656854.871 19460261.937 10 0 60340 25200.00000 0 -12410672.867 7344020.364 21044483.977 10 0 60340 26100.00000 0 -11587204.815 4803156.797 22220162.851 10 0 60340 27000.00000 0 -10933624.652 2092563.633 22964727.955 10 0 60340 27900.00000 0 -10477962.189 -722565.436 23263981.685 10 0 60340 28800.00000 0 -10236375.003 -3572611.896 23112353.912 10 0 60340 29700.00000 0 -10212502.051 -6386181.877 22512991.156 10 0 60340 30600.00000 0 -10397359.036 -9092826.884 21477680.210 10 0 60340 31500.00000 0 -10769778.209 -11625724.564 20026608.842 10 0 60340 32400.00000 0 -11297372.881 -13924210.362 18187968.859 10 0 60340 33300.00000 0 -11937985.509 -15936057.303 15997409.388 10 0 60340 34200.00000 0 -12641558.471 -17619411.508 13497350.652 10 0 60340 35100.00000 0 -13352349.386 -18944305.159 10736170.888 10 0 60340 36000.00000 0 -14011398.758 -19893685.837 7767281.078 10 0 60340 36900.00000 0 -14559147.246 -20463920.717 4648104.334 10 0 60340 37800.00000 0 -14938093.593 -20664755.581 1438978.403 10 0 60340 38700.00000 0 -15095382.328 -20518730.788 -1797998.676 10 0 60340 39600.00000 0 -14985212.934 -20060078.632 -5000158.469 10 0 60340 40500.00000 0 -14570969.253 -19333147.910 -8105465.486 10 0 60340 41400.00000 0 -13826979.099 -18390421.089 -11053711.435 10 0 60340 42300.00000 0 -12739829.082 -17290206.475 -13787677.713 10 0 60340 43200.00000 0 -11309177.789 -16094101.474 -16254243.931 10 0 60340 44100.00000 0 -9548031.068 -14864332.758 -18405421.098 10 0 60340 45000.00000 0 -7482465.427 -13661084.579 -20199289.293 10 0 60340 45900.00000 0 -5150808.370 -12539927.253 -21600821.344 10 0 60340 46800.00000 0 -2602307.185 -11549453.988 -22582576.004 10 0 60340 47700.00000 0 104660.842 -10729225.809 -23125246.450 10 0 60340 48600.00000 0 2904764.472 -10108111.761 -23218052.507 10 0 60340 49500.00000 0 5728191.987 -9703095.192 -22858967.896 10 0 60340 50400.00000 0 8503320.331 -9518597.554 -22054776.806 10 0 60340 51300.00000 0 11159469.456 -9546349.404 -20820957.414 10 0 60340 52200.00000 0 13629627.219 -9765815.185 -19181393.298 10 0 60340 53100.00000 0 15853030.801 -10145154.724 -17167917.233 10 0 60340 54000.00000 0 17777496.186 -10642681.373 -14819695.380 10 0 60340 54900.00000 0 19361397.407 -11208755.162 -12182463.328 10 0 60340 55800.00000 0 20575211.880 -11788030.358 -9307628.850 10 0 60340 56700.00000 0 21402566.417 -12321961.240 -6251259.309 10 0 60340 57600.00000 0 21840739.853 -12751458.425 -3072974.400 10 0 60340 58500.00000 0 21900601.547 -13019581.386 165232.787 10 0 60340 59400.00000 0 21605989.353 -13074151.106 3400221.706 10 0 60340 60300.00000 0 20992554.870 -12870170.306 6568951.554 10 0 60340 61200.00000 0 20106126.683 -12371947.169 9609723.591 10 0 60340 62100.00000 0 19000662.962 -11554831.545 12463392.785 10 0 60340 63000.00000 0 17735882.039 -10406489.597 15074524.056 10 0 60340 63900.00000 0 16374672.968 -8927663.001 17392469.886 10 0 60340 64800.00000 0 14980396.742 -7132381.024 19372348.350 10 0 60340 65700.00000 0 13614192.728 -5047617.218 20975903.103 10 0 60340 66600.00000 0 12332403.731 -2712405.913 22172229.714 10 0 60340 67500.00000 0 11184227.290 -176456.200 22938355.813 10 0 60340 68400.00000 0 10209690.382 2501678.235 23259665.602 10 0 60340 69300.00000 0 9438030.633 5256797.038 23130162.387 10 0 60340 70200.00000 0 8886549.586 8019527.822 22552565.840 10 0 60340 71100.00000 0 8559983.741 10718975.589 21538243.671 10 0 60340 72000.00000 0 8450417.506 13285438.313 20106980.137 10 0 60340 72900.00000 0 8537739.818 15653077.758 18286586.610 10 0 60340 73800.00000 0 8790623.967 17762436.738 16112361.891 10 0 60340 74700.00000 0 9167988.724 19562700.412 13626412.498 10 0 60340 75600.00000 0 9620879.275 21013609.670 10876845.402 10 0 60340 76500.00000 0 10094689.262 22086948.864 7916847.852 10 0 60340 77400.00000 0 10531631.215 22767547.313 4803670.997 10 0 60340 78300.00000 0 10873352.370 23053753.828 1597535.713 10 0 60340 79200.00000 0 11063586.626 22957364.945 -1639519.391 10 0 60340 80100.00000 0 11050731.740 22503009.880 -4844826.571 10 0 60340 81000.00000 0 10790243.520 21727017.545 -7956292.082 10 0 60340 81900.00000 0 10246746.120 20675812.409 -10913591.329 10 0 60340 82800.00000 0 9395768.847 19403905.449 -13659333.368 10 0 60340 83700.00000 0 8225035.178 17971563.498 -16140172.544 10 0 60340 84600.00000 0 6735247.900 16442253.706 -18307845.826 10 0 60340 85500.00000 0 4940335.101 14879969.575 -20120115.614 99